N4FLB Weather Reports


Display with metric or nautical units.
time (UTC)temp
F
wind
direction
speed
MPH
gust
MPH
rain 1hr
in
rain 24hr
in
rain mn
in
humidity
%
barometer
mb
20260509183625 68 186 1.0 4.0 0.00 0.73 0.73 99 1014.0
20260509182703 67 196 2.0 4.0 0.00 0.73 0.73 99 1014.1
20260509181803 67 171 1.0 5.0 0.00 0.73 0.73 100 1014.4
20260509180903 67 167 2.0 5.0 0.00 0.73 0.73 100 1014.4
20260509180003 67 172 2.0 5.0 0.00 0.73 0.73 100 1014.2
20260509175403 67 173 2.0 4.0 0.00 0.73 0.73 100 1014.3
20260509174524 67 199 1.0 3.0 0.00 0.73 0.73 100 1014.3
20260509173624 66 334 1.0 3.0 0.00 0.73 0.73 100 1014.3
20260509172703 66 349 0.0 3.0 0.00 0.73 0.73 100 1014.3
20260509171803 66 336 1.0 3.0 0.00 0.73 0.73 100 1014.2
20260509170903 65 314 1.0 3.0 0.00 0.73 0.73 100 1014.4
20260509170005 66 200 0.0 2.0 0.00 0.73 0.73 100 1014.6
20260509165405 65 324 0.0 2.0 0.00 0.73 0.73 100 1014.4
20260509164505 65 4 0.0 2.0 0.00 0.73 0.73 100 1014.6
20260509163605 65 5 1.0 3.0 0.01 0.73 0.73 100 1014.1
20260509162705 64 338 0.0 2.0 0.02 0.73 0.73 100 1014.2
20260509161826 64 310 1.0 2.0 0.03 0.73 0.73 100 1014.3
20260509160926 64 333 1.0 3.0 0.03 0.73 0.73 100 1014.3
20260509160005 64 0 0.0 0.0 0.03 0.73 0.73 100 1014.1
20260509155405 64 331 0.0 1.0 0.04 0.73 0.73 100 1014.4
20260509154505 64 341 1.0 3.0 0.04 0.73 0.73 100 1014.6
20260509153605 64 329 1.0 2.0 0.04 0.72 0.72 100 1014.8
20260509152704 64 173 1.0 4.0 0.04 0.71 0.71 100 1014.4
20260509151805 64 192 0.0 3.0 0.04 0.70 0.70 100 1014.6
20260509150926 64 323 0.0 2.0 0.05 0.70 0.70 100 1014.8
20260509150005 64 346 1.0 2.0 0.06 0.70 0.70 100 1014.4
20260509145404 64 11 0.0 1.0 0.06 0.69 0.69 100 1014.4
20260509144505 64 336 1.0 4.0 0.09 0.69 0.69 100 1014.3
20260509143604 64 186 1.0 4.0 0.12 0.68 0.68 100 1014.6
20260509142704 64 222 1.0 4.0 0.12 0.67 0.67 100 1014.7
20260509141825 64 219 1.0 5.0 0.12 0.66 0.66 100 1015.2
20260509140904 64 214 1.0 5.0 0.12 0.65 0.65 100 1015.0
20260509140005 64 227 0.0 4.0 0.12 0.64 0.64 100 1015.3
20260509135405 64 221 1.0 2.0 0.12 0.63 0.63 100 1015.2
20260509134504 64 258 0.0 5.0 0.11 0.60 0.60 100 1015.2
20260509133604 64 238 0.0 2.0 0.10 0.56 0.56 100 1014.8
20260509132704 64 211 0.0 3.0 0.13 0.55 0.55 100 1014.6
20260509131825 64 219 1.0 4.0 0.14 0.54 0.54 100 1014.4
20260509130904 64 239 0.0 2.0 0.14 0.53 0.53 100 1014.6
20260509130025 64 198 1.0 5.0 0.14 0.52 0.52 100 1015.0
20260509125404 64 196 1.0 5.0 0.14 0.51 0.51 100 1014.6
20260509124525 64 196 1.0 3.0 0.15 0.49 0.49 100 1015.1
20260509123604 63 202 1.0 3.0 0.14 0.46 0.46 100 1014.8
20260509122704 63 280 1.0 3.0 0.14 0.42 0.42 100 1014.3
20260509121804 63 215 1.0 5.0 0.14 0.40 0.40 100 1013.5
20260509120904 63 163 1.0 5.0 0.15 0.39 0.39 100 1013.2
20260509120025 63 202 2.0 8.0 0.16 0.38 0.38 100 1013.3
20260509115404 63 181 2.0 6.0 0.16 0.37 0.37 100 1013.5
20260509114504 63 176 1.0 4.0 0.16 0.34 0.34 100 1013.6
20260509113604 62 212 0.0 4.0 0.15 0.32 0.32 100 1014.2
20260509112704 62 195 1.0 4.0 0.11 0.28 0.28 100 1014.1
20260509111804 62 195 1.0 5.0 0.09 0.26 0.26 100 1014.1
20260509110903 62 216 1.0 5.0 0.08 0.24 0.24 100 1014.2
20260509110004 62 235 2.0 8.0 0.07 0.22 0.22 100 1014.4
20260509105403 62 208 3.0 8.0 0.06 0.21 0.21 100 1014.5
20260509104504 62 223 3.0 9.0 0.04 0.18 0.18 100 1014.4
20260509103603 62 188 2.0 5.0 0.08 0.17 0.17 100 1013.2
20260509102704 62 195 2.0 7.0 0.16 0.17 0.17 100 1013.1
20260509101803 62 195 3.0 6.0 0.17 0.17 0.17 100 1013.1
20260509100903 62 201 2.0 5.0 0.16 0.16 0.16 100 1013.2
20260509100004 62 142 4.0 8.0 0.15 0.15 0.15 100 1012.2
20260509095424 62 145 4.0 9.0 0.15 0.15 0.15 100 1012.1
20260509094504 62 138 3.0 9.0 0.14 0.14 0.14 100 1013.1
20260509093603 62 7 3.0 6.0 0.09 0.09 0.09 100 1013.8
20260509092704 62 311 1.0 4.0 0.01 0.01 0.01 100 1015.2
20260509091803 62 49 0.0 1.0 0.00 0.00 0.00 100 1014.1
20260509090904 61 37 0.0 2.0 0.00 0.00 0.00 100 1014.0
20260509090003 61 55 0.0 2.0 0.00 0.00 0.00 100 1014.3
20260509085403 61 24 0.0 2.0 0.00 0.00 0.00 100 1014.4
20260509084503 61 323 0.0 2.0 0.00 0.00 0.00 100 1014.8
20260509083603 61 291 0.0 1.0 0.00 0.00 0.00 100 1014.6
20260509082703 60 285 0.0 2.0 0.00 0.00 0.00 99 1014.5
20260509081803 60 257 0.0 1.0 0.00 0.00 0.00 99 1014.0
20260509080903 60 0 0.0 0.0 0.00 0.00 0.00 99 1013.4
20260509080003 60 0 0.0 0.0 0.00 0.00 0.00 99 1013.2
20260509075426 60 0 0.0 0.0 0.00 0.00 0.00 99 1012.9
20260509074505 60 0 0.0 0.0 0.00 0.00 0.00 99 1012.9
20260509073605 60 0 0.0 0.0 0.00 0.00 0.00 99 1013.0
20260509072705 60 0 0.0 0.0 0.00 0.00 0.00 99 1013.1
20260509071805 60 0 0.0 0.0 0.00 0.00 0.00 99 1013.2
20260509070905 60 0 0.0 0.0 0.00 0.00 0.00 99 1013.4
20260509070005 60 0 0.0 0.0 0.00 0.00 0.00 99 1013.3
20260509065405 60 0 0.0 0.0 0.00 0.00 0.00 99 1013.2
20260509064505 60 0 0.0 0.0 0.00 0.00 0.00 99 1013.3
20260509063605 60 0 0.0 0.0 0.00 0.00 0.00 98 1013.4
20260509062705 61 0 0.0 0.0 0.00 0.00 0.00 98 1013.6
20260509061805 61 0 0.0 0.0 0.00 0.00 0.00 98 1013.8
20260509060926 60 0 0.0 0.0 0.00 0.00 0.00 98 1013.6
20260509060005 61 0 0.0 0.0 0.00 0.00 0.00 98 1013.8
20260509055405 61 0 0.0 0.0 0.00 0.00 0.00 98 1013.7
20260509054504 61 0 0.0 0.0 0.00 0.00 0.00 98 1013.6
20260509053625 61 132 0.0 2.0 0.00 0.00 0.00 98 1013.5
20260509052704 61 152 1.0 3.0 0.00 0.00 0.00 98 1013.5
20260509051804 60 178 0.0 1.0 0.00 0.00 0.00 97 1013.7
20260509050925 60 178 0.0 1.0 0.00 0.00 0.00 97 1013.9
20260509050004 61 178 0.0 1.0 0.00 0.00 0.00 97 1014.2
20260509045404 61 0 0.0 0.0 0.00 0.00 0.00 97 1014.2
20260509044504 61 178 0.0 1.0 0.00 0.00 0.00 96 1014.2
20260509043625 61 0 0.0 0.0 0.00 0.00 0.00 96 1014.2
20260509042705 61 0 0.0 0.0 0.00 0.00 0.00 95 1014.0
20260509041804 62 0 0.0 0.0 0.00 0.00 0.00 95 1014.2
20260509040904 62 162 1.0 3.0 0.00 0.00 0.00 95 1014.3
20260509040005 62 138 1.0 2.0 0.00 0.00 0.00 95 1013.8
20260509035404 62 120 1.0 2.0 0.00 0.00 0.00 95 1014.0
20260509034504 62 123 0.0 2.0 0.00 0.00 0.00 95 1014.0
20260509033604 62 136 0.0 2.0 0.00 0.00 0.00 95 1014.3
20260509032704 62 0 0.0 0.0 0.00 0.00 0.00 94 1014.3
20260509031804 62 134 1.0 3.0 0.00 0.00 0.00 95 1014.3
20260509030904 62 142 1.0 5.0 0.00 0.00 0.00 94 1014.2
20260509030004 62 142 2.0 4.0 0.00 0.00 0.00 94 1014.4
20260509025404 62 140 2.0 5.0 0.00 0.00 0.00 94 1014.2
20260509024504 62 145 2.0 5.0 0.00 0.00 0.00 93 1014.5
20260509023604 62 155 2.0 5.0 0.00 0.00 0.00 93 1014.6
20260509022704 63 154 3.0 6.0 0.00 0.00 0.00 93 1014.7
20260509021804 63 148 3.0 8.0 0.00 0.00 0.00 92 1014.3
20260509020924 63 142 3.0 7.0 0.00 0.00 0.00 92 1014.3
20260509020004 63 147 3.0 6.0 0.00 0.00 0.00 91 1014.3
20260509015404 63 147 3.0 6.0 0.00 0.00 0.00 91 1014.4
20260509014504 63 140 2.0 5.0 0.00 0.00 0.00 91 1014.2
20260509013604 63 128 1.0 4.0 0.00 0.00 0.00 92 1014.3
20260509012704 63 141 1.0 2.0 0.00 0.00 0.00 92 1014.7
20260509011803 63 130 0.0 1.0 0.00 0.00 0.00 92 1014.6
20260509010904 63 100 1.0 3.0 0.00 0.00 0.00 92 1014.8
20260509010004 63 312 0.0 2.0 0.00 0.00 0.00 92 1015.1
20260509005403 64 353 1.0 3.0 0.00 0.00 0.00 91 1014.9
20260509004525 64 84 0.0 1.0 0.00 0.00 0.00 91 1014.7
20260509003603 64 84 0.0 2.0 0.00 0.00 0.00 90 1014.5
20260509002704 64 95 0.0 2.0 0.00 0.00 0.00 90 1014.4
20260509001825 64 124 1.0 3.0 0.00 0.00 0.00 90 1014.5
20260509000924 64 151 1.0 3.0 0.00 0.00 0.00 90 1014.5
20260509000024 64 170 1.0 2.0 0.00 0.00 0.00 89 1014.9
20260508235404 64 145 2.0 6.0 0.00 0.00 0.00 88 1014.8
20260508234504 64 121 1.0 3.0 0.00 0.00 0.00 88 1014.8
20260508233624 64 134 1.0 2.0 0.00 0.00 0.00 89 1015.2
20260508232704 64 119 2.0 4.0 0.00 0.00 0.00 89 1015.0
20260508231804 64 164 1.0 3.0 0.00 0.00 0.00 88 1015.3
20260508230924 64 186 0.0 2.0 0.00 0.00 0.00 89 1015.8
20260508230003 65 151 1.0 3.0 0.00 0.00 0.00 87 1015.5
20260508225403 65 147 0.0 2.0 0.00 0.00 0.00 86 1015.4
20260508224526 65 145 2.0 7.0 0.00 0.00 0.00 86 1015.4
20260508223605 65 150 2.0 7.0 0.00 0.00 0.00 86 1015.1
20260508222705 65 259 1.0 5.0 0.00 0.00 0.00 86 1015.9
20260508221805 65 151 2.0 6.0 0.00 0.00 0.00 85 1015.4
20260508220926 65 147 0.0 1.0 0.00 0.00 0.00 87 1015.6
20260508220005 65 160 1.0 3.0 0.00 0.00 0.00 87 1015.5
20260508215405 65 185 1.0 3.0 0.00 0.00 0.00 84 1015.3
20260508214505 65 216 0.0 1.0 0.00 0.00 0.00 84 1015.7
20260508213626 65 192 1.0 3.0 0.00 0.00 0.00 86 1015.9
20260508212705 65 290 1.0 3.0 0.00 0.00 0.00 84 1016.2
20260508211805 65 284 1.0 2.0 0.00 0.00 0.00 83 1016.1
20260508210904 65 201 1.0 5.0 0.00 0.00 0.00 83 1015.8
20260508210026 66 146 2.0 7.0 0.00 0.00 0.00 80 1015.5
20260508205405 66 118 1.0 5.0 0.00 0.00 0.00 81 1015.6
20260508204505 66 145 3.0 6.0 0.00 0.00 0.00 79 1015.6
20260508203604 66 192 0.0 3.0 0.00 0.00 0.00 81 1016.0
20260508202726 66 198 1.0 2.0 0.00 0.00 0.00 77 1016.4
20260508201804 66 161 1.0 4.0 0.00 0.00 0.00 77 1016.2
20260508200905 66 157 2.0 6.0 0.00 0.00 0.00 77 1016.1
20260508200004 66 154 3.0 7.0 0.00 0.00 0.00 78 1015.7
20260508195425 67 154 3.0 7.0 0.00 0.00 0.00 77 1015.8
20260508194504 67 143 2.0 5.0 0.00 0.00 0.00 76 1016.0
20260508193604 67 123 3.0 7.0 0.00 0.00 0.00 75 1016.0
20260508192704 67 126 3.0 7.0 0.00 0.00 0.00 74 1015.9
20260508191804 67 140 3.0 7.0 0.00 0.00 0.00 74 1016.1
20260508190904 67 107 4.0 7.0 0.00 0.00 0.00 73 1016.2
20260508190026 67 123 2.0 6.0 0.00 0.00 0.00 74 1016.5
20260508185404 67 130 3.0 6.0 0.00 0.00 0.00 72 1016.5
20260508184504 67 111 2.0 4.0 0.00 0.00 0.00 73 1016.7